Regional Weather Roundup
Issued by NWS Charleston, SC

Current Version | Previous Version | Graphics & Text | Print | Product List | Glossary On
Versions: 1 2 3 4 5 6 7 8 9 10 11 12 13 14 15 16 17 18 19 20 21 22 23 24 25 26 27 28 29 30 31 32 33 34 35 36 37 38 39 40 41 42 43 44 45 46 47 48 49 50
000
ASUS42 KCHS 230827
RWRCHS

REGIONAL WEATHER ROUNDUP
NATIONAL WEATHER SERVICE CHARLESTON SC
400 AM EDT SAT MAY 23 2015

NOTE: "FAIR" INDICATES FEW OR NO CLOUDS BELOW 12,000 FEET WITH NO
SIGNIFICANT WEATHER AND/OR OBSTRUCTIONS TO VISIBILITY.

NOT ALL STATIONS ARE QUALITY CONTROLLED BY THE NATIONAL
WEATHER SERVICE. USE DATA WITH CAUTION...ESPECIALLY
DEWPOINT OBSERVATIONS.

SCZ027-030-031-034>040-042>050-230900-
...SOUTHEAST SOUTH CAROLINA...

CITY           SKY/WX    TMP DP  RH WIND       PRES   REMARKS
N CHARLESTON   CLEAR     61  58  90 NE5       30.26R
WATERFRONT PAR   N/A     69  65  86 NE7       30.23S
MOUNT PLEASANT LGT RAIN  61  61 100 CALM      30.26S
JOHNS ISLAND   SUNNY     64  63  94 N6        30.26R
PINOPOLIS      NOT AVBL
MONCKS CORNER  FAIR      59  57  94 CALM      30.27R
SUMMERVILLE    FAIR      57  57 100 CALM      30.28R
BEAUFORT MCAS  CLEAR     65  63  93 NE7       30.25R
BEAUFORT ARPT  FAIR      68  64  88 NE9       30.25R
HILTON HEAD IS PTCLDY    70  63  78 N6        30.26R
WALTERBORO     SUNNY     54  54 100 CALM      30.27S
ALLENDALE      FAIR      57  57 100 CALM      30.26S

...SOUTHERN MIDLANDS AND PEE DEE...

CITY           SKY/WX    TMP DP  RH WIND       PRES   REMARKS
GEORGETOWN     NOT AVBL
KINGSTREE      NOT AVBL
ORANGEBURG     CLEAR     57  53  86 NE3       30.28R
BARNWELL       FAIR      55  52  88 CALM      30.28R
AIKEN          FAIR      54  45  71 NE3       30.32R
MANNING        FAIR      52  46  82 CALM      30.28S
COLUMBIA       CLEAR     55  50  83 CALM      30.29R
SUMTER         CLEAR     53  48  83 NE5       30.27R
FLORENCE       CLEAR     55  52  89 CALM      30.29R
MYRTLE BEACH   CLEAR     61  55  82 N6        30.30R
N MYRTLE BEACH CLEAR     58  56  93 CALM      30.28R

$$

GAZ063-065-086>088-099>101-113>116-118-119-134>141-150-230900-
...SOUTHEAST GEORGIA...

CITY           SKY/WX    TMP DP  RH WIND       PRES   REMARKS
SAVANNAH ARPT  CLEAR     60  58  92 N5        30.24S
HUNTER AAF     CLEAR     61  61 100 N1        30.21S
FORT STEWART   CLEAR     58  56  93 CALM      30.22
STATESBORO     CLEAR     56  32  39 CALM      30.26R
SYLVANIA       SUNNY     57  57 100 CALM      30.27R
CLAXTON        FAIR      55  55 100 CALM      30.25R

...CSRA...CENTRAL AND FAR SOUTHEAST GEORGIA...

CITY           SKY/WX    TMP DP  RH WIND       PRES   REMARKS
THOMSON        CLEAR     53  53 100 CALM      30.32R
AUGUSTA-BUSH   CLEAR     52  51  97 CALM      30.27R
AUGUSTA-DANIEL CLEAR     64  48  56 NE6       30.28R
SWAINSBORO     FAIR     N/A N/A N/A CALM      30.26S
VIDALIA        CLEAR     63  59  88 CALM      30.25R
EASTMAN        FOG       57  57 100 CALM      30.27R VSB 1/2
HAZLEHURST     FAIR      65  64  94 CALM      30.23S
ALMA           CLEAR     59  58  96 CALM      30.23S
WAYCROSS       CLEAR     62  62 100 CALM      30.23S
JESUP          FAIR      61  61 100 CALM      30.24R
BAXLEY         FAIR      61  61 100 CALM      30.23S
BRUNSWICK      CLEAR     63  59  88 CALM      30.23S
SAINT SIMONS   NOT AVBL

$$

SCZ027-028-034-036>038-045-046-048>050-GAZ119-141-230900-
...LAKE AND SUPPLEMENTAL COASTAL OBSERVATIONS...

STATION/POSITION TIME  TEMP    WIND        PRES    WAVE   SWELL
                       AIR SEA DIR/SP/G            HT/PER HT/PER/DIR
                 (UTC) (F)     (DEG/KT/KT) (MB)    (FT/S) (FT/S/D)
UPR LAKE MARION  NOT AVBL
WINYAH BAY       0700   69      70/  7     1024.0
LAKE MURRAY      0700   62      CALM  /  2 1024.7S
ACE BASIN NERRS  NOT AVBL
FORT PULASKI     0800   73 78   70/ 12/ 16 1024.2S
SAPELO ISLAND    0800   68      50/  5     1023.0F

$$

ANZ835-935-AMZ111-154-330-350-352-354-370-450-454-472-230900-
...C-MAN AND BUOY OBSERVATIONS...

STATION/POSITION TIME  TEMP    WIND        PRES    WAVE   SWELL
                       AIR SEA DIR/SP/G            HT/PER HT/PER/DIR
                 (UTC) (F)     (DEG/KT/KT) (MB)    (FT/S) (FT/S/D)
BUOY 41004       0750   72 75   50/ 16/ 19 1023.4S   3/ 6
BUOY 41008       0750   73 76   60/ 14/ 17 1023.1F   3/ 6   2/ 60/ 9
FOLLY BEACH CMAN 0800   71      70/ 13/ 15 1024.4R
CAPERS NEARSHORE 0708   72      70/ 14/ 17 1024.4F
FRIPP NEARSHORE  0700   73      70/ 12/ 14 1023.1F


STATION/POSITION TIME  TEMP    WIND        PRES    WAVE   SWELL
                       AIR SEA DIR/SP/G            HT/PER HT/PER/DIR
                 (UTC) (F)     (DEG/KT/KT) (MB)    (FT/S) (FT/S/D)
5E ST. MARYS GA  0721      77                N/A     4/ 5
FRYING PAN BUOY  0750   71 74   60/ 12/ 14 1025.2S   2/ 6   2/ 90/ 9
BUOY 41025       0750   68 77  330/  6/  8 1025.3R   3/ 9   3/ 50/ 9
CAPE LOOKOUT NC  0800   66      CALM  /  1 1025.3R
BUOY 41002       0750   71 74   50/ 16/ 21 1023.4R   6/ 9   3/ 9
BUOY 41010       0720   79 81  350/  6/  8 1021.1R
ST AUGUSTINE FL  0800   74 75   40/ 16/ 17 1022.3F


$$



USA.gov is the U.S. government's official web portal to all federal, state and local government web resources and services.